www.pogodaiklimat.ru

Погода и климат >> Архив погоды >> Индонезия >> Джамби


ПОГОДА в Джамби

  • Прогноз погоды в Джамби
  • Монитор погоды в Джамби

АРХИВ ПОГОДЫ в Джамби

Время (UTC), дата Ветер
(напр.,м/с)
 
Видим.   Явления Облачность Т
(С)
Тd
(С)
f
(%)
Тe
(С)
Тes
(С)
Комфортность P
(гПа)
Po
(гПа)
Тmin
(С)
Tmax
(С)
R
(мм)
R24
(мм)
S
(см)
03 16.09 ЮВ 3 7000 м дым 10/8 360 м
[Sc As op]
+29.0 +22.3 67 +38 +38 очень
душно
1012.2 1009.2
06 16.09 В 2 5000 м дым 10/8 360 м
[Sc As op]
+31.6 +21.9 56 +40 +41 очень
душно
1009.0 1006.0
09 16.09 В 3 4700 м дым 10/5 360 м
[Sc As op]
+32.2 +21.3 53 +40 +41 очень
душно
1007.2 1004.2
12 16.09 СВ 1 3700 м дым 10/4 360 м
[Sc As op Ci fib]
+30.0 +22.5 64 +39 +39 очень
душно
1008.0 1005.0 +32.6
15 16.09 СЗ 1 3600 м дым 10/4 360 м
[St As op]
+27.6 +23.2 77 +37 +37 очень
душно
1009.9 1007.7
18 16.09 Ю 1 2700 м дым 10/3 300 м
[St As op]
+25.8 +22.7 83 +34 +34 очень
душно
1010.1 1007.1
21 16.09 ЮВ 1 4900 м дым 8/3 400 м
[St As op Ci fib]
+23.8 +21.8 89 +31 +31 очень
душно
1010.2 1007.3
00 17.09 Ю 3 3300 м дым 10/4 330 м
[St As op]
+23.5 +21.7 90 +30 +30 очень
душно
1011.9 1008.9 +23.0
03 17.09 ЮВ 5 3000 м дым 9/5 420 м
[Cu hum As op Ci fib]
+29.2 +22.5 67 +38 +41 очень
душно
1012.6 1009.6
06 17.09 ЮВ 3 6000 м дым 10/6 420 м
[Cu hum As op]
+33.6 +21.3 49 +41 +43 опасность
перегрева
1009.2 1006.2
09 17.09 В 4 2100 м дым 10/3 450 м
[Sc]
+33.0 +21.0 49 +40 +42 очень
душно
1007.7 1004.7
12 17.09 СВ 1 3500 м дым 10/1 450 м
[Sc]
+30.4 +21.7 60 +39 +39 очень
душно
1009.1 1006.1 +34.0
15 17.09 В 2 1600 м дым 8/1 450 м
[Sc As op Ci fib]
+28.0 +23.0 74 +37 +37 очень
душно
1010.9 1008.0
18 17.09 В 2 5000 м дым 6/1 400 м
[Sc As op Ci fib]
+26.4 +22.2 78 +34 +34 очень
душно
1010.8 1007.9
21 17.09 ЮВ 2 5000 м дым 6/1 360 м
[Sc As op Ci fib]
+24.2 +21.9 87 +31 +31 очень
душно
1010.8 1007.9
00 18.09 Ю 3 2300 м дым 5/1 400 м
[Sc As op Ci fib]
+23.0 +21.6 92 +31 +32 очень
душно
1012.6 1009.7 +22.8
03 18.09 ЮВ 6 4200 м дым 8/3 450 м
[Sc As op Ci fib]
+29.8 +21.7 62 +38 +41 очень
душно
1013.0 1010.0
06 18.09 В 6 5000 м дым 9/3 480 м
[Sc As op Ci fib]
+33.6 +18.6 41 +38 +42 очень
душно
1010.2 1007.2
09 18.09 В 5 5000 м дым 9/3 450 м
[Sc As op Ci fib]
+34.2 +20.4 44 +41 +42 опасность
перегрева
1008.5 1005.5
12 18.09 СВ 2 1800 м дым 10/3 300 м
[Sc]
+30.6 +23.1 64 +41 +41 опасность
перегрева
1010.0 1007.0 +35.2
15 18.09 В 2 1600 м дым 9/6 300 м
[Sc As op Ci fib]
+28.0 +22.7 73 +37 +37 очень
душно
1011.2 1008.2
18 18.09 ЮВ 1 2400 м дым 9/6 240 м
[Sc As op Ci fib]
+25.9 +22.4 81 +34 +34 очень
душно
1010.4 1007.4
21 18.09 Ю 3 3100 м дым 10/6 90 м
[St As op]
+24.6 +23.2 92 +33 +33 очень
душно
1010.7 1007.7
00 19.09 ЮВ 2 2000 м дым 9/5 400 м
[Sc As op Ci fib]
+24.2 +22.8 92 +32 +32 очень
душно
1012.6 1009.6 +22.8
03 19.09 ЮВ 4 3700 м дым 9/6 300 м
[Sc As op Ci fib]
+30.2 +22.1 62 +39 +42 очень
душно
1013.1 1010.1
06 19.09 ЮВ 4 9000 м 9/6 450 м
[Cu med, cong As op Ci fib]
+33.0 +22.2 53 +42 +46 опасность
перегрева
1009.9 1006.9
09 19.09 В 2 4000 м дым 9/4 450 м
[Sc As op Ci fib]
+34.0 +22.1 50 +43 +45 опасность
перегрева
1008.0 1005.0
12 19.09 СВ 2 4000 м дым 9/4 360 м
[Sc As op Ci fib]
+30.8 +23.9 67 +42 +42 опасность
перегрева
1009.4 1006.4 +34.2
15 19.09 СВ 2 2900 м дым 8/3 400 м
[Sc As op Ci fib]
+28.4 +23.5 75 +39 +39 очень
душно
1010.6 1007.6
18 19.09 В 2 2300 м дым 9/4 300 м
[Sc As op Ci fib]
+26.2 +22.3 79 +34 +34 очень
душно
1010.2 1007.2
21 19.09 ЮЗ 2 6000 м дым 9/4 300 м
[Sc As op Ci fib]
+24.4 +21.9 86 +31 +31 очень
душно
1010.2 1007.2
00 20.09 Ю 2 4000 м дым 10/5 360 м
[Sc As op]
+24.6 +22.4 88 +32 +32 очень
душно
1012.3 1009.3 +23.6
03 20.09 ЮВ 3 1000 м дым 10/5 360 м
[Sc As op]
+28.8 +23.3 72 +39 +40 очень
душно
1013.0 1010.0
06 20.09 ЮВ 3 2000 м дым {туман} ?/? +33.0 +21.6 51 +41 +41 опасность
перегрева
1010.0 1007.0
09 20.09 СЗ 2 3000 м дым {туман} ?/? +32.6 +21.8 53 +41 +41 опасность
перегрева
1008.0 1005.1
12 20.09 С 2 3700 м дым {туман} 8/3 400 м
[Sc As op Ci fib]
+30.0 +21.6 61 +38 +38 очень
душно
1009.3 1006.4 +33.6
15 20.09 СВ 3 3200 м дым 9/3 400 м
[Sc As op Ci sp]
+27.6 +22.8 75 +37 +37 очень
душно
1010.8 1007.8
18 20.09 ЮВ 1 1800 м дым {туман} ?/? +26.0 +22.1 79 +34 +34 очень
душно
1010.2 1007.2
21 20.09 ЮВ 2 2200 м дым {туман} 9/3 420 м
[Sc As op Ci fib]
+23.4 +21.6 90 +32 +32 очень
душно
1010.0 1007.0
00 21.09 Ю 3 1200 м дым {туман} 9/1 400 м
[Sc As op Ci sp]
+23.0 +21.5 91 +31 +31 очень
душно
1011.5 1008.5 +22.6
03 21.09 Ю 4 1000 м дым {туман} ?/? +28.0 +21.8 69 +36 +36 очень
душно
1011.9 1009.0
06 21.09 ЮВ 5 1500 м дым {туман} ?/? +32.8 +19.7 46 +39 +39 очень
душно
1009.1 1006.2
09 21.09 СВ 3 2500 м дым ?/? +33.4 +17.8 40 +38 +38 очень
душно
1007.2 1004.2
12 21.09 С 2 2700 м ?/? +29.8 +19.4 54 +36 +36 очень
душно
1008.3 1005.3 +33.8
15 21.09 В 2 4000 м дым 9/8 300 м
[Sc As op]
+27.4 +21.4 70 +35 +35 очень
душно
1010.4 1007.5
18 21.09 ЮВ 2 2300 м дым 9/8 300 м
[Sc As trans]
+25.2 +21.0 78 +32 +32 очень
душно
1010.3 1007.4
21 21.09 Ю 2 6000 м дым 9/6 400 м
[Sc As op Ci fib]
+23.6 +20.9 85 +30 +30 очень
душно
1010.3 1007.4
00 22.09 Ю 3 1700 м дым 10/8 300 м
[Sc As op]
+23.0 +21.5 91 +31 +31 очень
душно
1012.4 1009.4 +22.2
03 22.09 ЮВ 4 1100 м дым ?/? +28.0 +22.1 70 +36 +36 очень
душно
1012.8 1009.8
06 22.09 В 3 700 м дым ?/? +32.2 +19.5 47 +38 +38 очень
душно
1009.6 1006.6
09 22.09 СВ 2 1700 м дым ?/? +32.2 +20.6 50 +39 +39 очень
душно
1008.2 1005.2
12 22.09 СВ 1 1800 м дым {туман} н/о +30.8 +22.2 60 +40 +40 очень
душно
1010.0 1007.1 +32.8
15 22.09 штиль 0 1500 м дым {туман} ?/? +28.4 +22.3 70 +37 +37 очень
душно
1012.0 1009.0
18 22.09 В 1 1000 м дым {туман} ?/? +26.4 +22.6 80 +35 +35 очень
душно
1011.6 1008.6
21 22.09 ЮВ 1 3000 м дым ?/? +25.2 +23.0 88 +34 +34 очень
душно
1010.9 1007.9
00 23.09 Ю 2 2000 м дым {туман} 10/5 300 м
[Sc As op]
+24.2 +22.3 89 +31 +32 очень
душно
1012.3 1009.3 +23.0

 

Местоположение метеостанции Джамби (Индонезия): широта -1.63 долгота 103.65 высота над уровнем моря 25 м.

В архиве по умолчанию представлена погода в Джамби за последнюю неделю. Архивные данные за месяц целиком и за предыдущие месяцы, начиная с января 2011 года, Вы можете получить, выбрав интересующий диапазон дат из раскрывающегося списка и нажав кнопку "Ввод!".


*Определитесь, кто Вы:
робот инопланетянин человек

Внимание! Время в таблицах - всемирное. Для получения местного времени необходимо прибавить поправку, которая равна 7 ч.

Смотрите также архив погоды в соседних городах и на ближайших метеорологических станциях:

Погода в Аэропорту Дабо (Индонезия) (164 км)
Погода в Палембанге (Индонезия) (183 км)
Погода в Аэропорту Япура (Индонезия) (208 км)
Погода в Панкалпинанге (Индонезия) (282 км)
Погода на Керинчи (Индонезия) (284 км)
Погода в Бенкулу (Индонезия) (290 км)
Погода в Танджунгпинанге (Индонезия) (300 км)
Погода в Аэропорту Ханга Надима (Индонезия) (310 км)
Погода в Сингапуре (Сингапур) (336 км)
Погода в Пеканбару (Индонезия) (338 км)

Пояснения к столбцам:

Ветер - указаны скорость ветра в м/с - средняя за 10 мин, порывы в срок и между сроками (в фигурных скобках) и направление, откуда дует ветер: С - северный, СВ - северо-восточный, В - восточный, ЮВ - юго-восточный, Ю - южный, ЮЗ - юго-западный, З - западный, СЗ - северо-западный.
Видимость - горизонтальная дальность видимости в метрах или километрах. При видимости от 1 до 10 км при отсутствии осадков обычно наблюдается дымка, при ухудшении видимости до 1 км и менее - туман. В сухую погоду видимость может ухудшаться дымом, пылью или мглою.
Явления - указаны атмосферные явления, наблюдавшиеся в срок или в последний час перед сроком; фигурными скобками обозначены явления, наблюдавшиеся между сроками (за 1-3 часа до срока); квадратными скобками обозначены град или гололедные отложения с указанием их диаметра в мм.
Облачность - указаны через наклонную черту общая и нижняя облачность в баллах и высота нижней границы облаков в метрах; квадратными скобками обозначены формы облаков: Ci - перистые, Cs - перисто-слоистые, Cc - перисто-кучевые, Ac - высококучевые, As - высокослоистые, Sc - слоисто-кучевые, Ns - слоисто-дождевые, Cu - кучевые, Cb - кучево-дождевые. Подробнее классификацию облаков см. в Атласе облаков (PDF).
T - Температура воздуха - температура, измеренная на высоте 2 м над землей.
Td - Температура точки росы - температура, при понижении до которой содержащийся в воздухе водяной пар достигнет насыщения.
f - Относительная влажность воздуха - влажноcть воздуха, измеренная на высоте 2 м над землей.
Te - Эффективная температура - температура, которую ощущает одетый по сезону человек в тени. Характеристика душности погоды. При расчете учитывается влияние влажности воздуха и скорости ветра на теплоощущения человека.
Tes - Эффективная температура на солнце - температура, которую ощущает человек, с поправкой на солнечный нагрев. Характеристика знойности погоды. Зависит от высоты солнца над горизонтом, облачности и скорости ветра. Ночью, в пасмурную погоду, а также при ветре 12 м/с и более поправка равна нулю.
P - Атмосферное давление - приведенное к уровню моря атмосферное давление.
Po - Атмосферное давление - измеренное на уровне метеостанции атмосферное давление.
Tmin - Минимальная температура - минимум температуры воздуха на высоте 2 м над землей.
Tmax - Максимальная температура - максимум температуры воздуха на высоте 2 м над землей.
R - Количество осадков - Количество выпавших осадков за период времени, мм. При наведении курсора мыши на число - период времени, за который выпало указанное количество осадков.
R24 - Количество осадков - Количество выпавших осадков за 24 часа, мм.
S - Снежный покров - Высота снежного покрова, см. При наведении курсора мыши на число - состояние снежного покрова и степень покрытия местности в баллах.